Danmarkshavn

KL  EN  DA
ASIAQ
Weather Now GREENLAND SURVEY
Updated [WGT/WGST] Temperature [°C] Wind [m/s] Air pressure [hPa] Relative humidity [%] Precipitation [mm]
Present Wind chill Speed Max
25.02 07:00-26,0-41,19,4 ⇘10,6100959n/a
25.02 06:00-28,1-42,47,5 ⇒9,5100960n/a
25.02 05:00-27,3-38,74,7 ⇒8,2100959n/a
25.02 04:00-28,6-41,55,8 ⇒8,6100859n/a
25.02 03:00-27,3-40,05,9 ⇒9,1100855n/a
25.02 02:00-27,0-40,97,3 ⇒9,2100856n/a
25.02 01:00-28,7-41,45,5 ⇒8,6100859n/a
25.02 00:00-25,8-38,36,1 ⇘7,7100749n/a
24.02 23:00-27,4-34,82,2 ⇒6,8100851n/a
24.02 22:00-28,7-41,96,0 ⇒7,9100855n/a
24.02 21:00-27,7-37,63,5 ⇒7,6100854n/a
24.02 20:00-28,1-38,84,0 ⇒9,1100754n/a
24.02 19:00-28,4-39,44,2 ⇒8,7100756n/a
24.02 18:00-27,6-42,38,2 ⇘10,5100654n/a
24.02 17:00-28,5-42,46,8 ⇒8,5100656n/a
24.02 16:00-28,9-41,75,6 ⇒7,8100658n/a
24.02 15:00-28,2-40,65,4 ⇒7,9100655n/a
24.02 14:00-28,6-38,43,3 ⇒6,5100657n/a
24.02 13:00-28,40,01,0 ⇗7,3100557n/a
24.02 12:00-28,7-39,84,2 ⇒7,9100558n/a
24.02 11:00-28,6-42,87,2 ⇒9,6100557n/a
24.02 10:00-29,1-41,35,0 ⇒7,1100557n/a
24.02 09:00-30,0-41,54,3 ⇒6,9100560n/a
24.02 08:00n/an/an/a7,0n/an/an/a
24.02 07:00-30,3-43,15,3 ⇒8,3100564n/a
Position: (76.76944444444,-18.66805555)

[Back]